星链-32433 (STARLINK-32433)

导读

STARLINK-32433是美国SpaceX星链互联网卫星星座中的一员,于2024年11月7日发射入轨,旨在为全球范围内用户提供低延迟、宽带互联网服务,尤其覆盖偏远地区与网络基础设施薄弱区域。作为星链批量部署的卫星之一,它延续了该星座低轨运行设计,助力SpaceX持续推进全球卫星互联网组网建设。

Basic Information
目录编号:
61852
目录名称:
STARLINK-32433
国际标识:
2024-202H
轨道中心:
EARTH
卫星名称:
星链-32433
卫星全名:
星链-32433 (STARLINK-32433)
卫星状态:
在轨 (已飞行674 天)
发射日期:
2024-11-07 UTC
国别 :
美国 (US)
星等 :
--
This satellite is enrolled in the Space Conjunction Data Service (SCDS) and the current flight risk assessment level is: No High Risk
Orbit Information
数据来源 国际轨道数据 AOE轨道数据
星历时间 2026-09-11T19:14:29+0800
16小时前
查看轨道信息
2026-09-06T06:00:00+0800
6天前
查看轨道信息
半长轴 6861.189km 6861.187km
偏心率 0.0001112 0.0001579
轨道倾角 43.000° 43.002°
近地点辐角 275.039° 257.100°
升交点赤经 268.502° 299.863°
平近点角 85.033° 136.645°
近地点 482.289km 481.966km
远地点 483.815km 484.134km
周期 94.267分钟 94.267分钟
每日圈数 15.275791 15.2758
Detailed Information
固有亮度:
5
最大亮度:
2.5
卫星平台:
Starlink V1.0
覆盖范围:
全球
运营商:
太空探索技术公司
运营商所在国:
美国
制造商(研发单位):
太空探索技术公司
制造商所在国:
美国
使用方式:
暂无
Satellite Introduction
Starlink 计划是 SpaceX 推出的全球卫星互联网项目,通过发射低轨道卫星,为全球尤其是偏远地区提供高速、低延迟的互联网服务。自 2019 年起,Starlink 已部署数千颗卫星,旨在缩小全球数字鸿沟,推动互联网普及。该项目还为军事、航空等行业提供通信支持,带来广泛经济效益。
2D Orbit Map
3D Orbit Map
Orbit Altitude Analysis Chart
Orbit Inclination Analysis Chart
Orbit Comprehensive Analysis Chart
View Comprehensive Chart
Conjunction Data List
Event ID Objects TCA Miss Dist (km) Collision Risk Probability Collision Risk Index (CRI) Action
CDM_260914-020506-185206-320021
2026-09-14T
02:05:32+0000
1.050 km
极远距离
1.749852E-5 中风险 0.6
CDM_260914-003106-185206-320022
2026-09-14T
00:31:23+0000
1.876 km
极远距离
2.658166E-6 低风险 0.43
CDM_260913-151206-185206-387221
2026-09-13T
15:12:17+0000
2.972 km
极远距离
1.197678E-6 低风险 0.37
Miss Distance Evolution Trend with All Objects
Collision Probability Evolution Trend with All Objects